This demonstration page uses our WeatherBlox Daily Observations layout. Learn more.

39.08367, -84.50855

Hourly Observations for June 18, 2019

Temp ( °F °C ) Dew Point ( °F °C ) Humidity (%) Winds ( mph kmh ) Pressure ( in mb ) Visibility ( mi km ) Precip ( " mm )
12:53 am 00:53 Mostly Cloudy 67 19.4 66 18.9 97 97 S 3 6 29.97 1015 10 16.09344 0 0
1:53 am 01:53 Cloudy 67 19.4 66 18.9 97 97 SSW 3 6 29.94 1014 10 16.09344 0 0
2:53 am 02:53 Clear 67 19.4 66 18.9 97 97 S 3 6 29.94 1014 10 16.09344 0 0
3:34 am 03:34 Mostly Clear 67 19.4 66 18.9 97 97 SSW 3 6 29.91 1013 10 16.09344 0 0
3:49 am 03:49 Mostly Cloudy 66 19 66 19 100 100 SSW 3 6 29.91 1013 10 16.09344 0 0
3:53 am 03:53 Mostly Cloudy 68 20 66 18.9 93 93 S 5 7 29.91 1013 10 16.09344 0 0
4:28 am 04:28 Cloudy with Light Rain 68 20 67 19.4 96 96 S 3 6 29.91 1013 10 16.09344 0.001 0.001
4:53 am 04:53 Cloudy with Heavy Rain 70 21.1 68 20 93 93 S 6 9 29.91 1013 4 6.437376 0.07 1.778
5:42 am 05:42 Cloudy with Light Rain 69 20.6 68 20 96 96 Calm 29.91 1013 10 16.09344 0.05 1.27
5:49 am 05:49 Cloudy with Light Rain 70 21 68 20 94 94 Calm 29.91 1013 10 16.09344 0.05 1.27
5:53 am 05:53 Cloudy 69 20.6 68 20 96 96 Calm 29.91 1013 10 16.09344 0.05 1.27
6:03 am 06:03 Cloudy 69 20.6 68 20 96 96 Calm 29.91 1013 10 16.09344 0 0
6:45 am 06:45 Cloudy with Light Rain 69 20.6 68 20 96 96 Calm 29.91 1013 10 16.09344 0.001 0.001
6:53 am 06:53 Cloudy with Light Rain 69 20.6 68 20 96 96 Calm 29.91 1013 10 16.09344 0.001 0.001
7:20 am 07:20 Cloudy with Light Rain 70 21.1 68 20 93 93 Calm 29.91 1013 10 16.09344 0.001 0.001
7:53 am 07:53 Cloudy with Light Rain 69 20.6 68 20 96 96 S 6 9 29.94 1014 5 8.04672 0.02 0.508
8:19 am 08:19 Cloudy with Rain 69 20.6 68 20 96 96 S 7 11 29.94 1014 2.5 4.02336 0.08 2.032
8:24 am 08:24 Cloudy with Rain 69 20.6 68 20 96 96 S 7 11 29.94 1014 3 4.828032 0.09 2.286
8:53 am 08:53 Mostly Cloudy with Rain 70 21.1 68 20 93 93 S 6 9 29.94 1014 4 6.437376 0.16 4.064
9:14 am 09:14 Cloudy with Rain 69 20.6 68 20 96 96 S 7 11 29.94 1014 4 6.437376 0.06 1.524
9:24 am 09:24 Cloudy with Rain 69 20.6 68 20 96 96 S 5 7 29.94 1014 4 6.437376 0.08 2.032
9:53 am 09:53 Cloudy with Rain 69 20.6 68 20 96 96 S 5 7 29.94 1014 4 6.437376 0.15 3.81
10:25 am 10:25 Cloudy with Rain 70 21.1 68 20 93 93 S 7 11 29.94 1014 3 4.828032 0.03 0.762
10:53 am 10:53 Cloudy with Mist and Fog 70 21.1 68 20 93 93 S 8 13 29.94 1014 3 4.828032 0.05 1.27
11:13 am 11:13 Cloudy with Light Rain 70 21.1 69 20.6 97 97 S 5 7 29.94 1014 2.5 4.02336 0.01 0.254
11:53 am 11:53 Cloudy with Mist and Fog 73 22.8 70 21.1 90 90 S 8 13 29.91 1013 5 8.04672 0.01 0.254
12:53 pm 12:53 Mostly Cloudy 74 23.3 70 21.1 88 88 VRB 3 6 29.91 1013 8 12.874752 0 0
1:14 pm 13:14 Mostly Cloudy 75 23.9 70 21.1 84 84 VRB 5 7 29.91 1013 8 12.874752 0 0
1:53 pm 13:53 Mostly Cloudy 77 25 70 21.1 79 79 SSW 6 9 29.88 1012 10 16.09344 0 0
2:17 pm 14:17 Mostly Cloudy 78 25.6 70 21.1 76 76 SW 5 7 29.91 1013 10 16.09344 0 0
2:53 pm 14:53 Mostly Cloudy 80 26.7 70 21.1 71 71 SW 6 9 29.88 1012 10 16.09344 0 0
3:53 pm 15:53 Cloudy with Light Rain 78 25.6 69 20.6 74 74 Calm 29.85 1011 7 11.265408 0.02 0.508
4:53 pm 16:53 Mostly Cloudy 80 26.7 70 21.1 71 71 ESE 5 7 29.85 1011 10 16.09344 0.001 0.001
5:53 pm 17:53 Mostly Cloudy 79 26.1 70 21.1 74 74 S 5 7 29.83 1010 10 16.09344 0 0
6:53 pm 18:53 Mostly Cloudy 77 25 71 21.7 82 82 SSE 6 9 29.83 1010 10 16.09344 0 0
7:53 pm 19:53 Mostly Cloudy 75 23.9 72 22.2 90 90 S 7 11 29.83 1010 10 16.09344 0 0
8:35 pm 20:35 Mostly Cloudy with Nearby Thunderstorms 75 23.9 72 22.2 90 90 SE 5 7 29.85 1011 10 16.09344 0 0
8:53 pm 20:53 Mostly Cloudy 75 23.9 71 21.7 88 88 Calm 29.83 1010 10 16.09344 0 0
9:13 pm 21:13 Cloudy 75 23.9 71 21.7 88 88 SSE 5 7 29.85 1011 10 16.09344 0 0
9:45 pm 21:45 Cloudy with Rain 73 22.8 70 21.1 90 90 VRB 7 11 29.85 1011 4 6.437376 0.04 1.016
9:53 pm 21:53 Mostly Cloudy with Light Rain 72 22.2 70 21.1 94 94 N 9 15 29.83 1010 10 16.09344 0.05 1.27
10:03 pm 22:03 Cloudy 71 21.7 70 21.1 96 96 E 7 11 29.85 1011 10 16.09344 0.001 0.001
10:39 pm 22:39 Mostly Cloudy 72 22.2 71 21.7 97 97 Calm 29.88 1012 10 16.09344 0.001 0.001
10:53 pm 22:53 Mostly Cloudy 72 22.2 70 21.1 94 94 Calm 29.85 1011 10 16.09344 0.001 0.001
11:01 pm 23:01 Mostly Cloudy 72 22.2 70 21.1 94 94 Calm 29.88 1012 10 16.09344 0 0
11:53 pm 23:53 Cloudy with Light Rain 71 21.7 70 21.1 96 96 VRB 5 7 29.85 1011 7 11.265408 0.05 1.27

Powered by AerisWeather